QPF
0.00 0.00 0.00 0.00 0.00 0.00 0.00 0.00 0.00 0.00 0.00 0.00 0.00 0.00 0.00 0.00 0.00 0.00 0.00 0.00 0.00 0.00 0.00 0.00 0.00 0.00 0.00 0.00 0.00 0.00 0.00 0.00 0.00 0.00 0.00 0.00 0.00 0.00 0.00 0.00 0.00 0.00 0.00 0.00 0.00
0.00 0.00 0.00 0.00 0.00 0.00 0.00 0.00 0.00 0.00 0.00 0.00 0.00 0.00 0.00 0.00 0.00 0.00 0.00 0.00 0.00 0.00 0.00 0.00 0.00 0.00 0.00 0.00 0.00 0.00 0.00 0.00 0.00 0.00 0.00 0.00 0.00 0.00 0.00 0.00 0.00 0.00 0.00 0.00 0.00
0.00 0.00 0.00 0.00 0.00 0.00 0.00 0.00 0.00 0.00 0.00 0.00 0.00 0.00 0.00 0.00 0.00 0.00 0.00 0.00 0.00 0.00 0.00 0.00 0.00 0.00 0.00 0.00 0.00 0.00 0.00 0.00 0.00 0.00 0.00 0.00 0.00 0.00 0.00 0.00 0.00 0.00 0.00 0.00 0.00
0.00 0.00 0.00 0.00 0.00 0.00 0.00 0.00 0.00 0.00 0.00 0.00 0.00 0.00 0.00 0.00 0.00 0.00 0.00 0.00 0.00 0.00 0.00 0.00 0.00 0.00 0.00 0.00 0.00 0.00 0.00 0.00 0.00 0.00 0.00 0.00 0.00 0.00 0.00 0.00 0.00 0.00 0.00 0.00 0.00
0.00 0.00 0.00 0.00 0.00 0.00 0.00 0.00 0.00 0.00 0.00 0.00 0.00 0.00 0.00 0.00 0.00 0.00 0.00 0.00 0.00 0.00 0.00 0.00 0.00 0.00 0.00 0.00 0.00 0.00 0.00 0.00 0.00 0.00 0.00 0.00 0.00 0.00 0.00 0.00 0.00 0.00 0.00 0.00 0.00
0.00 0.00 0.00 0.00 0.00 0.00 0.00 0.00 0.00 0.00 0.00 0.00 0.00 0.00 0.00 0.00 0.00 0.00 0.00 0.00 0.00 0.00 0.00 0.00 0.00 0.00 0.00 0.00 0.00 0.00 0.00 0.00 0.00 0.00 0.00 0.00 0.00 0.00 0.00 0.00 0.00 0.00 0.00 0.00 0.00
0.00 0.00 0.00 0.00 0.00 0.00 0.00 0.00 0.00 0.00 0.00 0.00 0.00 0.00 0.00 0.00 0.00 0.00 0.00 0.00 0.00 0.00 0.00 0.00 0.00 0.00 0.00 0.00 0.00 0.00 0.00 0.00 0.00 0.00 0.00 0.00 0.00 0.00 0.00 0.00 0.00 0.00 0.00 0.00 0.00
0.00 0.00 0.00 0.00 0.00 0.00 0.00 0.00 0.00 0.00 0.00 0.00 0.00 0.00 0.00 0.00 0.00 0.00 0.00 0.00 0.00 0.00 0.00 0.00 0.00 0.00 0.00 0.00 0.00 0.00 0.00 0.00 0.00 0.00 0.00 0.00 0.00 0.00 0.00 0.00 0.00 0.00 0.00 0.00 0.00
0.00 0.00 0.00 0.00 0.00 0.00 0.00 0.00 0.00 0.00 0.00 0.00 0.00 0.00 0.00 0.00 0.00 0.00 0.00 0.00 0.00 0.00 0.00 0.00 0.00 0.00 0.00 0.00 0.00 0.00 0.00 0.00 0.00 0.00 0.00 0.00 0.00 0.00 0.00 0.00 0.00 0.00 0.00 0.00 0.00
0.00 0.00 0.00 0.00 0.00 0.00 0.00 0.00 0.00 0.00 0.00 0.00 0.00 0.00 0.00 0.00 0.00 0.00 0.00 0.00 0.00 0.00 0.00 0.00 0.00 0.00 0.00 0.00 0.00 0.00 0.00 0.00 0.00 0.00 0.00 0.00 0.00 0.00 0.00 0.00 0.00 0.00 0.00 0.00 0.00
0.00 0.00 0.00 0.00 0.00 0.00 0.00 0.00 0.00 0.00 0.00 0.00 0.00 0.00 0.00 0.00 0.00 0.00 0.00 0.00 0.00 0.00 0.00 0.00 0.00 0.00 0.00 0.00 0.00 0.00 0.00 0.00 0.00 0.00 0.00 0.00 0.00 0.00 0.00 0.00 0.00 0.00 0.00 0.00 0.00
0.00 0.00 0.00 0.00 0.00 0.00 0.00 0.00 0.00 0.00 0.00 0.00 0.00 0.00 0.00 0.00 0.00 0.00 0.00 0.00 0.00 0.00 0.00 0.00 0.00 0.00 0.00 0.00 0.00 0.00 0.00 0.00 0.00 0.00 0.00 0.00 0.00 0.00 0.00 0.00 0.00 0.00 0.00 0.00 0.00
0.00 0.00 0.00 0.00 0.00 0.00 0.00 0.00 0.00 0.00 0.00 0.00 0.00 0.00 0.00 0.00 0.00 0.00 0.00 0.00 0.00 0.00 0.00 0.00 0.00 0.00 0.00 0.00 0.00 0.00 0.00 0.00 0.00 0.00 0.00 0.00 0.00 0.00 0.00 0.00 0.00 0.00 0.00 0.00 0.00
0.00 0.00 0.00 0.00 0.00 0.00 0.00 0.00 0.00 0.00 0.00 0.00 0.00 0.00 0.00 0.00 0.00 0.00 0.00 0.00 0.00 0.00 0.00 0.00 0.00 0.00 0.00 0.00 0.00 0.00 0.00 0.00 0.00 0.00 0.00 0.00 0.00 0.00 0.00 0.00 0.00 0.00 0.00 0.00 0.00
0.00 0.00 0.00 0.00 0.00 0.00 0.00 0.00 0.00 0.00 0.00 0.00 0.00 0.00 0.00 0.00 0.00 0.00 0.00 0.00 0.00 0.00 0.00 0.00 0.00 0.00 0.00 0.00 0.00 0.00 0.00 0.00 0.00 0.00 0.00 0.00 0.00 0.00 0.00 0.00 0.00 0.00 0.00 0.00 0.00
0.00 0.00 0.00 0.00 0.00 0.00 0.00 0.00 0.00 0.00 0.00 0.00 0.00 0.00 0.00 0.00 0.00 0.00 0.00 0.00 0.00 0.00 0.00 0.00 0.00 0.00 0.00 0.00 0.00 0.00 0.00 0.00 0.00 0.00 0.00 0.00 0.00 0.00 0.00 0.00 0.00 0.00 0.00 0.00 0.00
0.00 0.00 0.00 0.00 0.00 0.00 0.00 0.00 0.00 0.00 0.00 0.00 0.00 0.00 0.00 0.00 0.00 0.00 0.00 0.00 0.00 0.00 0.00 0.00 0.00 0.00 0.00 0.00 0.00 0.00 0.00 0.00 0.00 0.00 0.00 0.00 0.00 0.00 0.00 0.00 0.00 0.00 0.00 0.00 0.00
0.00 0.00 0.00 0.00 0.00 0.00 0.00 0.00 0.00 0.00 0.00 0.00 0.00 0.00 0.00 0.00 0.00 0.00 0.00 0.00 0.00 0.00 0.00 0.00 0.00 0.00 0.00 0.00 0.00 0.00 0.00 0.00 0.00 0.00 0.00 0.00 0.00 0.00 0.00 0.00 0.00 0.00 0.00 0.00 0.00
0.00 0.00 0.00 0.00 0.00 0.00 0.00 0.00 0.00 0.00 0.00 0.00 0.00 0.00 0.00 0.00 0.00 0.00 0.00 0.00 0.00 0.00 0.00 0.00 0.00 0.00 0.00 0.00 0.00 0.00 0.00 0.00 0.00 0.00 0.00 0.00 0.00 0.00 0.00 0.00 0.00 0.00 0.00 0.00 0.00
0.00 0.00 0.00 0.00 0.00 0.00 0.00 0.00 0.00 0.00 0.00 0.00 0.00 0.00 0.00 0.00 0.00 0.00 0.00 0.00 0.00 0.00 0.00 0.00 0.00 0.00 0.00 0.00 0.00 0.00 0.00 0.00 0.00 0.00 0.00 0.00 0.00 0.00 0.00 0.00 0.00 0.00 0.00 0.00 0.00
0.00 0.00 0.00 0.00 0.00 0.00 0.00 0.00 0.00 0.00 0.00 0.00 0.00 0.00 0.00 0.00 0.00 0.00 0.00 0.00 0.00 0.00 0.00 0.00 0.00 0.00 0.00 0.00 0.00 0.00 0.00 0.00 0.00 0.00 0.00 0.00 0.00 0.00 0.00 0.00 0.00 0.00 0.00 0.00 0.00
0.00 0.00 0.00 0.00 0.00 0.00 0.00 0.00 0.00 0.00 0.00 0.00 0.00 0.00 0.00 0.00 0.00 0.00 0.00 0.00 0.00 0.00 0.00 0.00 0.00 0.00 0.00 0.00 0.00 0.00 0.00 0.00 0.00 0.00 0.00 0.00 0.00 0.00 0.00 0.00 0.00 0.00 0.00 0.00 0.02
0.00 0.00 0.00 0.00 0.00 0.00 0.00 0.00 0.00 0.00 0.00 0.00 0.00 0.00 0.00 0.00 0.00 0.00 0.00 0.00 0.00 0.00 0.00 0.00 0.00 0.00 0.00 0.00 0.00 0.00 0.00 0.00 0.00 0.00 0.00 0.00 0.00 0.00 0.00 0.00 0.00 0.00 0.00 0.00 0.00
0.00 0.00 0.00 0.00 0.00 0.00 0.00 0.00 0.00 0.00 0.00 0.00 0.00 0.00 0.00 0.00 0.00 0.00 0.00 0.00 0.00 0.00 0.00 0.00 0.00 0.00 0.00 0.00 0.00 0.00 0.00 0.00 0.00 0.00 0.00 0.00 0.00 0.00 0.00 0.00 0.00 0.00 0.00 0.00 0.00
0.00 0.00 0.00 0.00 0.00 0.00 0.00 0.00 0.00 0.00 0.00 0.00 0.00 0.00 0.00 0.00 0.00 0.00 0.00 0.00 0.00 0.00 0.00 0.00 0.00 0.00 0.00 0.00 0.00 0.00 0.00 0.00 0.00 0.00 0.00 0.00 0.00 0.00 0.00 0.00 0.00 0.00 0.00 0.00 0.00
0.00 0.00 0.00 0.00 0.00 0.00 0.00 0.00 0.00 0.00 0.00 0.00 0.00 0.00 0.00 0.00 0.00 0.00 0.00 0.00 0.00 0.00 0.00 0.00 0.00 0.00 0.00 0.00 0.00 0.00 0.00 0.00 0.00 0.00 0.00 0.00 0.00 0.00 0.00 0.00 0.00 0.00 0.00 0.00 0.00
0.00 0.00 0.00 0.00 0.00 0.00 0.00 0.00 0.00 0.00 0.00 0.00 0.00 0.00 0.00 0.00 0.00 0.00 0.00 0.00 0.00 0.00 0.00 0.00 0.00 0.00 0.00 0.00 0.00 0.00 0.00 0.00 0.00 0.00 0.00 0.00 0.00 0.00 0.00 0.00 0.00 0.00 0.00 0.00 0.00
MSLP
1018.29 1017.97 1017.50 1017.14 1016.69 1016.26 1015.80 1015.35 1014.82 1014.30 1013.68 1012.93 1011.98 1011.51 1011.06 1010.56 1010.08 1010.12 1008.80 1006.87 1007.17 1008.14 1008.80 1009.91 1010.24 1010.21 1010.62 1010.43 1010.01 1010.10 1010.27 1009.83 1008.99 1008.76 1008.41 1008.57 1008.91 1009.14 1009.14 1009.68 1010.00 1010.35 1010.75 1011.03 1012.02
1018.26 1017.96 1017.60 1017.24 1016.70 1016.27 1015.85 1015.26 1014.73 1014.27 1013.73 1013.12 1012.18 1011.42 1011.02 1010.72 1010.15 1008.75 1006.45 1006.28 1006.86 1007.62 1008.67 1009.22 1009.67 1009.92 1010.12 1009.80 1009.57 1009.70 1009.88 1008.89 1007.77 1007.75 1008.05 1008.29 1008.58 1008.93 1009.50 1009.94 1010.28 1010.63 1010.93 1011.22 1012.16
1018.36 1017.97 1017.63 1017.19 1016.66 1016.25 1015.77 1015.09 1014.52 1014.05 1013.58 1013.01 1012.22 1011.49 1011.18 1010.83 1009.88 1007.25 1006.10 1006.23 1006.69 1007.24 1007.60 1007.98 1008.44 1009.18 1009.54 1009.12 1009.00 1008.87 1008.69 1007.72 1006.97 1006.87 1006.98 1007.89 1008.37 1008.34 1009.29 1009.99 1009.92 1010.22 1010.93 1011.40 1012.07
1018.58 1018.12 1017.62 1017.03 1016.49 1016.01 1015.46 1014.84 1014.33 1013.78 1013.33 1012.91 1012.19 1011.35 1010.88 1010.64 1009.01 1006.68 1006.27 1006.42 1006.81 1007.30 1007.58 1007.68 1008.17 1008.69 1008.68 1008.47 1008.12 1008.38 1007.55 1007.11 1006.51 1006.55 1007.17 1007.35 1007.75 1008.00 1008.74 1008.72 1008.66 1009.85 1010.23 1011.16 1011.65
1018.62 1018.14 1017.64 1016.99 1016.34 1015.78 1015.21 1014.61 1013.98 1013.46 1012.97 1012.62 1012.18 1011.34 1010.44 1009.88 1007.69 1006.68 1006.64 1006.93 1007.50 1007.72 1007.60 1007.63 1007.80 1007.87 1007.99 1007.76 1007.74 1007.89 1007.22 1006.90 1005.72 1006.02 1006.64 1007.13 1007.38 1007.82 1008.14 1008.29 1008.75 1009.98 1010.57 1011.00 1011.44
1018.53 1018.06 1017.51 1016.98 1016.28 1015.60 1014.95 1014.31 1013.64 1013.05 1012.53 1012.23 1011.92 1011.53 1011.01 1009.26 1006.39 1006.56 1006.92 1007.41 1007.38 1007.56 1007.33 1007.32 1007.17 1007.24 1007.44 1007.44 1007.47 1007.13 1006.94 1006.56 1006.07 1005.98 1006.58 1007.09 1007.55 1007.79 1007.95 1008.24 1008.99 1009.90 1010.19 1010.41 1010.73
1018.39 1017.78 1017.22 1016.72 1016.00 1015.20 1014.49 1013.73 1012.99 1012.57 1011.89 1011.71 1011.59 1011.43 1010.61 1007.68 1006.16 1006.46 1006.73 1006.88 1006.84 1007.00 1007.11 1006.91 1006.76 1006.84 1007.19 1007.07 1006.82 1006.82 1007.24 1006.92 1006.56 1006.45 1006.86 1007.09 1007.79 1007.80 1007.86 1008.05 1008.95 1009.48 1009.67 1009.89 1010.12
1018.49 1017.79 1017.08 1016.43 1015.72 1014.90 1014.12 1013.24 1012.44 1012.00 1011.27 1010.99 1011.19 1011.15 1009.43 1006.31 1006.06 1006.24 1006.27 1006.31 1006.48 1006.64 1006.64 1006.48 1006.64 1006.93 1006.95 1006.89 1006.97 1007.26 1007.17 1007.27 1006.88 1006.77 1006.92 1007.36 1007.30 1007.81 1007.86 1008.23 1008.93 1009.30 1009.42 1009.67 1009.83
1018.43 1017.93 1017.20 1016.48 1015.68 1014.71 1013.64 1012.70 1011.85 1011.34 1011.08 1010.95 1011.01 1010.49 1008.35 1005.95 1005.91 1005.38 1005.52 1005.85 1005.96 1006.27 1006.37 1006.37 1006.74 1007.25 1007.37 1007.57 1007.87 1008.16 1008.01 1007.97 1007.40 1007.04 1007.27 1007.52 1007.39 1007.08 1007.51 1007.79 1008.61 1008.90 1008.92 1009.08 1009.39
1018.34 1017.79 1017.14 1016.43 1015.61 1014.71 1013.19 1011.78 1011.13 1011.24 1011.15 1011.02 1010.46 1010.24 1007.41 1006.06 1005.40 1005.13 1005.23 1005.52 1005.82 1006.11 1006.46 1006.81 1007.67 1008.00 1008.64 1008.68 1009.01 1008.70 1008.52 1008.20 1007.74 1007.17 1007.59 1007.86 1007.31 1007.16 1007.49 1007.69 1007.61 1008.22 1008.35 1008.70 1008.70
1018.34 1017.67 1017.10 1016.31 1015.49 1014.81 1013.47 1011.93 1011.84 1011.58 1010.84 1010.10 1009.55 1008.48 1007.02 1005.90 1005.32 1005.04 1004.95 1005.38 1005.75 1006.26 1006.90 1007.45 1008.30 1008.61 1008.65 1008.64 1008.49 1008.54 1008.48 1008.59 1007.85 1007.12 1007.52 1007.48 1007.32 1007.22 1007.45 1007.78 1007.65 1007.67 1007.87 1008.28 1008.03
1018.33 1017.64 1016.97 1016.05 1015.23 1014.68 1014.30 1013.81 1013.66 1013.73 1011.85 1009.36 1008.61 1007.91 1006.73 1006.35 1006.16 1004.89 1004.78 1005.47 1006.04 1006.80 1007.29 1008.06 1008.23 1008.05 1008.04 1008.16 1008.40 1008.45 1008.45 1007.81 1006.88 1006.76 1007.40 1007.48 1007.32 1007.49 1007.51 1006.91 1006.56 1007.05 1007.57 1007.64 1008.07
1018.38 1017.71 1016.92 1015.89 1014.99 1014.63 1014.69 1013.56 1013.43 1013.33 1012.64 1009.01 1007.64 1006.71 1005.82 1006.13 1005.70 1004.58 1004.68 1005.07 1005.87 1006.82 1007.39 1007.88 1007.67 1007.42 1007.82 1008.13 1008.40 1008.32 1008.35 1007.58 1007.61 1007.39 1007.27 1007.59 1007.74 1007.38 1006.99 1006.67 1006.71 1006.77 1007.04 1007.50 1007.59
1018.46 1017.75 1017.03 1015.93 1015.12 1015.52 1014.22 1013.05 1013.11 1013.15 1012.45 1008.98 1006.95 1005.17 1005.12 1005.25 1004.87 1003.75 1003.81 1004.64 1005.84 1006.40 1007.38 1007.52 1006.94 1007.08 1007.34 1007.62 1007.90 1008.14 1007.13 1007.20 1007.53 1007.95 1008.07 1008.07 1008.57 1008.01 1007.35 1006.86 1006.50 1006.20 1006.32 1006.62 1006.84
1018.18 1017.79 1017.25 1017.07 1016.51 1015.49 1013.40 1013.12 1012.74 1012.80 1011.74 1007.36 1005.79 1004.37 1004.59 1004.60 1003.52 1003.30 1003.37 1004.05 1005.13 1006.14 1006.95 1006.96 1006.74 1006.64 1006.77 1006.70 1007.02 1006.97 1006.92 1007.46 1007.91 1008.59 1008.88 1008.79 1009.17 1007.70 1007.44 1006.65 1005.82 1005.60 1005.59 1005.73 1006.07
1017.87 1017.53 1017.31 1017.12 1016.85 1014.16 1013.34 1013.08 1012.68 1012.76 1010.40 1007.12 1005.31 1004.64 1004.75 1004.32 1003.73 1003.49 1003.65 1003.86 1004.65 1005.84 1006.39 1006.41 1006.05 1005.88 1005.61 1005.67 1006.08 1006.24 1007.17 1008.16 1009.20 1009.79 1010.43 1009.42 1009.39 1008.73 1007.66 1006.73 1005.89 1005.39 1005.63 1006.11 1007.27
1017.35 1016.95 1017.17 1017.08 1014.94 1013.59 1013.57 1013.20 1013.37 1012.05 1009.50 1007.45 1006.11 1005.24 1004.81 1004.36 1003.97 1003.71 1003.90 1004.37 1005.11 1006.20 1006.80 1006.45 1005.98 1005.26 1004.97 1005.41 1005.93 1006.66 1008.03 1009.48 1010.85 1011.49 1011.18 1010.06 1009.76 1008.21 1006.73 1006.39 1006.53 1005.90 1005.89 1006.08 1006.96
1016.71 1016.06 1015.25 1014.81 1013.91 1013.67 1013.80 1013.77 1013.13 1010.97 1009.41 1007.57 1006.50 1005.58 1005.11 1004.56 1004.16 1003.92 1004.27 1004.90 1005.19 1005.82 1007.06 1006.87 1006.01 1005.01 1004.60 1004.76 1005.37 1006.57 1007.73 1009.43 1011.16 1012.29 1011.39 1010.35 1009.46 1007.32 1006.45 1006.45 1006.41 1005.87 1006.31 1006.94 1007.15
1015.90 1015.42 1015.15 1013.22 1013.62 1013.78 1014.12 1013.89 1012.10 1010.68 1009.19 1008.13 1006.79 1006.14 1005.53 1004.88 1004.54 1004.27 1004.53 1004.87 1004.94 1005.55 1006.50 1006.83 1006.01 1004.85 1004.24 1004.12 1004.77 1006.65 1007.78 1008.77 1010.71 1012.22 1011.91 1010.71 1009.27 1007.44 1006.80 1006.65 1007.30 1007.33 1007.53 1007.78 1007.49
1016.40 1015.91 1014.27 1012.92 1013.23 1013.49 1013.90 1013.24 1011.83 1010.25 1009.02 1008.08 1007.44 1006.77 1006.40 1005.64 1005.09 1004.74 1004.78 1004.54 1004.66 1004.87 1004.97 1006.11 1006.36 1005.26 1004.34 1004.20 1004.91 1005.63 1007.07 1008.92 1010.43 1011.88 1012.16 1011.10 1009.86 1008.70 1007.15 1007.28 1008.38 1008.21 1008.24 1008.21 1007.80
1016.45 1015.49 1013.37 1012.98 1013.20 1013.53 1013.93 1013.23 1011.38 1009.73 1009.07 1008.34 1007.77 1007.36 1006.83 1006.20 1005.54 1005.19 1004.98 1004.65 1004.56 1004.89 1005.28 1006.07 1006.48 1006.02 1005.21 1004.95 1005.28 1006.33 1007.32 1008.92 1010.36 1011.10 1011.56 1011.12 1009.83 1007.39 1007.31 1007.96 1008.68 1008.62 1008.45 1008.03 1007.85
1016.90 1015.55 1013.53 1013.29 1013.63 1014.40 1013.76 1012.25 1010.72 1009.47 1008.75 1008.31 1007.86 1007.67 1007.20 1006.62 1005.84 1005.42 1005.01 1004.72 1004.53 1004.78 1005.65 1005.85 1006.27 1006.66 1005.69 1005.22 1005.32 1005.65 1006.63 1007.81 1010.03 1011.26 1011.35 1010.67 1008.68 1006.97 1007.59 1008.25 1008.72 1008.58 1008.12 1007.85 1007.86
1017.60 1015.65 1013.64 1013.34 1013.77 1014.11 1013.04 1011.84 1010.69 1009.54 1008.77 1008.41 1007.82 1007.19 1006.95 1006.68 1006.31 1005.62 1005.14 1004.46 1004.67 1005.01 1005.55 1005.81 1006.56 1006.77 1006.45 1005.95 1005.32 1005.56 1006.42 1007.39 1008.71 1009.61 1010.39 1010.30 1008.34 1007.13 1007.66 1008.33 1008.57 1008.55 1007.97 1007.67 1007.60
1017.95 1016.08 1014.38 1013.60 1013.64 1013.26 1012.74 1011.74 1010.54 1009.13 1008.48 1007.99 1007.57 1007.10 1006.92 1006.81 1006.57 1006.30 1005.75 1005.00 1004.83 1005.24 1005.51 1005.68 1006.75 1006.56 1006.52 1005.75 1005.37 1005.57 1005.94 1006.96 1007.64 1009.13 1009.89 1009.36 1008.27 1007.28 1007.23 1007.48 1008.40 1008.39 1008.07 1008.06 1008.55
1017.84 1016.15 1014.46 1013.94 1013.65 1013.03 1012.43 1011.44 1010.40 1009.61 1008.20 1007.54 1007.42 1006.99 1006.86 1007.03 1006.74 1006.72 1006.31 1005.90 1005.34 1005.66 1006.11 1006.58 1007.39 1006.96 1006.35 1005.87 1005.37 1005.47 1006.05 1006.64 1007.25 1007.86 1008.51 1008.43 1008.52 1007.49 1007.74 1007.30 1007.77 1008.32 1008.56 1008.67 1008.58
1017.83 1016.65 1014.91 1014.04 1013.27 1012.71 1012.11 1011.12 1010.04 1009.13 1008.69 1007.50 1007.25 1006.61 1006.71 1006.76 1006.56 1006.74 1006.82 1006.60 1006.58 1006.42 1006.90 1007.48 1008.02 1007.62 1007.17 1006.45 1005.95 1006.02 1006.63 1007.15 1007.52 1008.13 1008.45 1008.51 1008.41 1008.09 1008.01 1007.81 1007.82 1007.87 1007.95 1008.20 1008.20
1017.55 1016.66 1016.02 1014.25 1013.35 1012.65 1011.73 1010.68 1009.57 1008.87 1007.65 1007.12 1006.81 1006.76 1006.86 1006.54 1006.45 1006.58 1006.85 1007.03 1007.17 1007.56 1008.05 1008.34 1008.75 1008.87 1008.53 1007.73 1007.13 1007.77 1008.10 1008.04 1008.78 1009.41 1009.67 1009.63 1009.49 1009.02 1007.75 1008.09 1007.96 1007.71 1007.91 1007.77 1007.82
Thickness
5754 5758 5763 5767 5772 5776 5781 5786 5792 5797 5804 5810 5819 5824 5827 5831 5837 5835 5837 5858 5858 5852 5849 5838 5835 5832 5826 5820 5827 5823 5791 5785 5802 5802 5810 5820 5810 5822 5827 5811 5814 5813 5807 5810 5803
5751 5755 5759 5764 5769 5773 5778 5784 5789 5794 5801 5808 5817 5823 5826 5829 5833 5836 5866 5868 5863 5856 5845 5835 5826 5827 5815 5817 5821 5808 5785 5800 5824 5826 5818 5823 5818 5818 5811 5806 5805 5804 5812 5813 5804
5746 5751 5756 5761 5766 5770 5775 5782 5788 5793 5799 5805 5814 5821 5823 5827 5830 5844 5867 5868 5864 5859 5855 5850 5843 5831 5814 5820 5819 5813 5802 5828 5833 5836 5838 5826 5823 5829 5810 5798 5809 5805 5807 5808 5803
5739 5745 5751 5758 5764 5769 5774 5781 5787 5792 5797 5803 5810 5819 5824 5826 5804 5854 5864 5865 5862 5858 5850 5844 5836 5821 5815 5814 5827 5810 5827 5836 5843 5842 5833 5826 5831 5825 5821 5823 5834 5823 5820 5813 5805
5732 5739 5745 5753 5760 5767 5773 5778 5785 5791 5796 5801 5807 5816 5825 5815 5826 5857 5858 5858 5853 5849 5841 5834 5830 5825 5814 5824 5826 5814 5828 5836 5854 5849 5840 5837 5831 5828 5825 5838 5837 5825 5819 5814 5807
5725 5732 5740 5747 5755 5763 5770 5777 5783 5789 5795 5800 5805 5811 5813 5799 5857 5855 5853 5850 5848 5844 5840 5837 5831 5836 5825 5822 5820 5828 5831 5838 5846 5847 5845 5831 5830 5833 5833 5838 5831 5823 5819 5818 5814
5718 5726 5734 5742 5751 5760 5768 5776 5784 5789 5796 5799 5803 5808 5804 5815 5855 5850 5850 5848 5849 5846 5835 5840 5842 5834 5832 5823 5840 5837 5818 5826 5833 5837 5836 5839 5819 5819 5835 5838 5827 5825 5825 5822 5819
5710 5718 5727 5736 5745 5755 5764 5773 5783 5788 5795 5800 5800 5802 5796 5848 5850 5846 5850 5847 5849 5847 5844 5847 5845 5834 5828 5838 5827 5818 5817 5797 5827 5833 5836 5832 5799 5825 5835 5832 5824 5825 5825 5822 5820
5702 5709 5718 5727 5737 5748 5760 5770 5780 5787 5791 5794 5796 5797 5794 5845 5835 5849 5850 5839 5843 5844 5843 5847 5838 5821 5822 5802 5790 5792 5786 5795 5806 5830 5824 5820 5810 5836 5837 5834 5825 5826 5827 5826 5823
5692 5701 5710 5719 5729 5740 5754 5769 5777 5780 5784 5787 5793 5784 5812 5818 5835 5843 5847 5843 5833 5831 5824 5821 5805 5794 5786 5778 5753 5776 5782 5789 5794 5819 5817 5807 5810 5831 5831 5832 5832 5831 5831 5827 5826
5683 5692 5700 5711 5722 5730 5744 5759 5759 5763 5774 5779 5786 5789 5804 5824 5837 5833 5840 5830 5828 5819 5793 5800 5783 5772 5784 5788 5796 5792 5786 5779 5796 5822 5809 5802 5810 5822 5824 5829 5829 5832 5832 5828 5831
5674 5683 5692 5704 5715 5723 5728 5737 5736 5739 5741 5778 5784 5790 5806 5813 5799 5820 5836 5810 5803 5783 5792 5780 5769 5790 5798 5795 5789 5786 5784 5786 5809 5821 5810 5803 5803 5815 5819 5830 5839 5836 5833 5834 5829
5663 5673 5683 5695 5707 5714 5716 5730 5734 5738 5727 5765 5783 5790 5801 5802 5793 5806 5820 5810 5796 5781 5779 5767 5786 5796 5792 5784 5778 5781 5778 5788 5793 5810 5815 5806 5789 5807 5821 5829 5835 5839 5840 5837 5832
5653 5662 5672 5686 5699 5696 5711 5726 5730 5731 5699 5743 5767 5790 5800 5799 5790 5824 5826 5811 5793 5778 5773 5776 5793 5790 5784 5779 5778 5765 5798 5804 5799 5792 5766 5801 5752 5788 5808 5815 5829 5836 5838 5840 5838
5646 5653 5661 5667 5675 5689 5713 5717 5724 5723 5669 5761 5771 5805 5798 5789 5807 5811 5826 5809 5785 5783 5777 5774 5781 5783 5779 5786 5787 5781 5804 5796 5798 5782 5784 5783 5759 5788 5802 5816 5826 5836 5841 5844 5845
5640 5648 5654 5659 5665 5692 5703 5709 5713 5678 5668 5737 5769 5772 5770 5784 5793 5805 5802 5810 5805 5783 5783 5783 5798 5795 5794 5803 5798 5810 5794 5778 5764 5759 5742 5774 5763 5769 5795 5817 5824 5840 5838 5837 5828
5637 5644 5647 5652 5674 5688 5692 5696 5664 5655 5722 5732 5745 5759 5762 5766 5775 5785 5780 5774 5764 5747 5752 5776 5781 5799 5808 5793 5798 5784 5763 5727 5734 5726 5728 5763 5758 5777 5811 5819 5820 5828 5837 5836 5830
5633 5643 5655 5661 5674 5679 5681 5671 5653 5687 5700 5731 5745 5749 5751 5762 5767 5773 5765 5757 5774 5765 5739 5740 5742 5785 5804 5795 5787 5784 5767 5727 5720 5710 5737 5754 5748 5780 5815 5818 5822 5834 5832 5827 5825
5632 5640 5647 5666 5668 5670 5664 5645 5661 5683 5711 5717 5734 5735 5738 5753 5761 5764 5756 5753 5768 5768 5746 5733 5748 5791 5801 5809 5802 5775 5759 5772 5725 5720 5721 5736 5761 5794 5809 5812 5810 5813 5814 5814 5819
5619 5626 5645 5661 5663 5663 5649 5648 5668 5692 5707 5715 5711 5725 5722 5734 5746 5749 5747 5768 5771 5774 5782 5761 5740 5777 5794 5803 5796 5790 5782 5750 5731 5725 5720 5727 5743 5750 5795 5805 5796 5799 5802 5807 5814
5613 5631 5648 5653 5656 5649 5634 5639 5669 5692 5700 5700 5705 5710 5721 5728 5738 5740 5747 5765 5773 5772 5773 5758 5750 5758 5782 5776 5768 5765 5757 5745 5739 5727 5713 5714 5736 5782 5793 5796 5789 5794 5800 5806 5809
5599 5623 5638 5644 5635 5613 5634 5653 5678 5685 5697 5699 5708 5708 5714 5723 5732 5739 5743 5755 5773 5774 5756 5763 5746 5734 5756 5781 5784 5783 5772 5755 5729 5734 5715 5719 5737 5798 5791 5790 5789 5793 5801 5805 5808
5589 5608 5630 5637 5624 5622 5636 5653 5666 5676 5683 5690 5697 5709 5715 5718 5721 5737 5744 5767 5769 5768 5758 5763 5737 5724 5736 5752 5776 5773 5768 5753 5738 5733 5723 5722 5740 5792 5785 5784 5786 5791 5800 5802 5805
5585 5612 5621 5627 5621 5632 5639 5645 5653 5677 5681 5689 5698 5709 5710 5711 5720 5722 5733 5756 5763 5765 5764 5762 5730 5739 5730 5745 5762 5766 5772 5761 5754 5732 5726 5730 5762 5786 5788 5786 5782 5786 5794 5796 5791
5580 5605 5618 5618 5620 5628 5637 5644 5649 5656 5681 5687 5691 5697 5698 5698 5710 5713 5728 5737 5757 5755 5756 5749 5735 5748 5755 5760 5769 5772 5769 5765 5765 5753 5751 5761 5755 5779 5781 5786 5786 5783 5785 5784 5787
5586 5596 5606 5609 5619 5628 5626 5639 5649 5661 5667 5680 5684 5697 5695 5694 5706 5704 5720 5727 5732 5744 5744 5737 5726 5742 5744 5751 5757 5763 5756 5763 5762 5755 5759 5759 5760 5776 5778 5783 5782 5782 5784 5782 5784
5579 5588 5593 5609 5614 5620 5628 5642 5653 5665 5680 5688 5689 5688 5690 5701 5713 5723 5724 5725 5731 5731 5726 5727 5719 5716 5722 5731 5744 5722 5729 5746 5741 5736 5743 5742 5753 5760 5775 5773 5776 5780 5779 5782 5785